Location: Carrizalito
(10.3833°N, 67.0217°W)
Time: 09:54:27
(UTC+00:00)

Meteor 1-11 Rocket - Pass Details

Date: 03 July 2022
Orbit: 830 x 916 km, 81.2° (Epoch: 14 August)

Event Time Altitude Azimuth Distance (km) Brightness Sun altitude
Exits shadow 07:28:28 - 133° (SE) 2,836 6.5 -35.5°
Reaches altitude 10° 07:29:34 10° 124° (SE) 2,600 6.4 -35.3°
Maximum altitude 07:32:43 15° 92° (E) 2,274 6.4 -34.7°
Drops below altitude 10° 07:35:51 10° 59° (ENE) 2,600 7.0 -34.1°
Sets 07:39:29 0° 37° (NE) 3,536 7.9 -33.4°
